[[{"header":{"parameterUnit":"m.s-1","parameterCategory":1,"la1":30.2991,"la2":30.254,"lo1":-89.0895,"lo2":-89.0444,"dy":0.0017,"dx":0.0017,"nx":28,"ny":28,"refTime":"2025-03-06T09:00:00:Z","depth":0,"parameterNumber":2,"parameterNumberName":"U-component_of_WINDS"},"data":[0,0,0,0,0,0,0,0,0,0,0,0,0,0,0,0,0,0,0,0,0,0,0,0,0,0,0,0,0,0,0,0,0,0,0,0,0,0,0,0,0,0,0,0,0,0,0,0,0,0,0,0,0,0,0,0,0,0,4.2748,4.2749,0,4.2828,4.2829,4.283,4.2759,4.2756,4.2753,4.2751,4.2836,4.2841,4.2846,0,0,0,0,0,0,0,0,0,0,0,0,0,4.2537,4.2542,4.2748,4.2749,4.275,4.2828,4.2829,4.283,4.276,4.2756,4.2753,4.2749,4.2835,4.2841,4.2847,0,0,0,0,0,0,0,0,0,0,0,0,0,4.2624,4.2543,4.2747,4.2724,4.2722,4.2828,4.2829,4.283,4.276,4.2756,4.2752,4.2748,4.2833,4.284,4.2847,4.2981,0,0,4.287,4.2874,0,0,0,0,0,0,0,0,4.262,4.2632,4.2726,4.2726,4.2724,4.2779,4.2786,4.2881,4.2762,4.2746,4.2751,4.2745,4.2821,4.2829,4.2854,4.2985,4.2989,4.2871,4.2875,4.2879,4.2881,0,0,0,0,0,0,0,4.2614,4.2628,4.2779,4.2728,4.2727,4.2711,4.2718,4.2804,4.2807,4.2747,4.2742,4.2752,4.282,4.2847,4.2855,4.299,4.2871,4.2877,4.2882,4.2885,4.3238,4.3242,0,0,0,0,0,0,4.261,4.2624,4.2777,4.2782,4.266,4.2718,4.2726,4.2766,4.2806,4.2808,4.2756,4.2749,4.2836,4.2847,4.2858,4.3019,4.2879,4.2886,4.289,4.3233,4.3239,4.3244,0,0,0,0,0,0,4.2605,4.2624,4.2774,4.2702,4.2719,4.2726,4.2771,4.277,4.2797,4.2813,4.2813,4.2783,4.2833,4.2848,4.2951,4.3021,4.2889,4.2896,4.3227,4.3235,4.3241,4.3342,0,0,0,0,0,0,4.26,4.2623,4.2672,4.2703,4.2723,4.2865,4.2775,4.2775,4.281,4.2801,4.2838,4.284,4.2831,4.2941,4.2959,4.3029,4.2902,4.3221,4.3231,4.3239,4.3332,4.3351,4.3368,0,0,0,0,0,4.2592,4.2698,4.2675,4.2694,4.2786,4.2869,4.288,4.2866,4.2815,4.2867,4.2877,4.2839,4.301,4.2952,4.2972,4.3045,4.3217,4.3228,4.3238,4.3324,4.3348,4.3368,0,0,0,0,0,0,4.2676,4.2701,4.2677,4.2795,4.283,4.2856,4.292,4.2892,4.2943,4.2933,4.2914,4.2923,4.3033,4.3049,4.2984,4.3178,4.3105,4.3121,4.3164,4.3186,4.3204,4.3199,4.2908,0,0,0,0,0,4.2708,4.2772,4.2791,4.2893,4.2912,4.2914,4.2949,4.2935,4.2972,4.2986,4.3004,4.3042,4.3104,4.3146,4.3204,4.3334,4.3342,4.3394,4.3412,4.3427,4.3441,4.3514,4.3538,4.328,4.328,4.328,0,0,4.2775,4.2797,4.2838,4.2911,4.2936,4.3005,4.2927,4.3002,4.3053,4.2998,4.3097,4.3112,4.3153,4.3271,4.3324,4.3288,4.3514,4.3441,4.3453,4.3459,4.3527,4.3552,4.3574,4.3288,4.3286,4.3285,0,0,4.2932,4.2954,4.3043,4.3071,4.311,4.3111,4.3132,4.3164,4.3171,4.327,4.3231,4.3292,4.34,4.3431,4.3461,4.3633,4.3601,4.3652,4.3747,4.3817,4.3838,4.3856,4.3919,4.3942,4.3666,4.3666,4.3666,0,4.3011,4.3111,4.3093,4.3172,4.3206,4.3158,4.325,4.3277,4.3335,4.336,4.3319,4.3454,4.3478,4.3604,4.3646,4.3671,4.3697,4.3649,4.3836,4.3854,4.387,4.3931,4.3955,4.3672,4.3672,4.3671,4.3671,0,4.3207,4.3278,4.3345,4.3401,4.3443,4.3527,4.3523,4.3568,4.3551,4.3557,4.366,4.3687,4.3751,4.3779,4.3763,4.3904,4.3881,4.3838,4.3765,4.3902,4.3958,4.3981,4.3681,4.3679,4.3677,4.3676,0,0,4.342,4.3465,4.3491,4.3517,4.3557,4.3612,4.3696,4.3758,4.3797,4.3839,4.391,4.4002,4.3964,4.3998,4.3985,4.4047,4.4185,4.3997,4.3998,4.4033,4.4344,4.4378,4.4405,4.4163,4.4167,4.4171,4.4342,0,4.3581,4.3725,4.3711,4.3849,4.3915,4.3872,4.3945,4.3979,4.3987,4.4045,4.4053,4.4121,4.4063,4.4084,4.4143,4.4155,4.4247,4.4143,4.4231,4.4235,4.4224,4.4434,4.4469,4.4629,4.4363,4.4367,4.437,0,4.3787,4.3836,4.398,4.4013,4.404,4.4106,4.4163,4.4218,4.4257,4.4258,4.4298,4.4275,4.4361,4.4285,4.4405,4.4334,4.437,4.4382,4.4387,4.4397,4.4312,4.4451,4.4679,4.4704,4.4404,4.4401,4.4399,0,4.3931,4.4032,4.4132,4.4155,4.4195,4.4243,4.4262,4.4296,4.4335,4.4385,4.4411,4.447,4.4504,4.4551,4.4546,4.4491,4.4669,4.4592,4.4675,4.4675,4.4716,4.4714,4.4955,4.4736,4.4735,4.4735,4.4734,0,4.4113,4.4203,4.4197,4.4259,4.436,4.4344,4.4445,4.4458,4.449,4.4555,4.4521,4.4583,4.4571,4.4634,4.4631,4.4732,4.4747,4.4752,4.4751,4.4756,4.4756,4.4781,4.477,4.4741,4.474,4.4738,4.4737,0,4.4291,4.429,4.4396,4.4426,4.4435,4.4509,4.4535,4.4594,4.4599,4.4682,4.47,4.4709,4.4781,4.478,4.4863,4.4861,4.4986,4.497,4.4973,4.497,4.5054,4.5047,4.5321,4.5358,4.5113,4.5115,4.5117,0,4.4408,4.4476,4.4513,4.4554,4.4576,4.4642,4.4682,4.467,4.4712,4.4763,4.4817,4.4886,4.494,4.5058,4.5073,4.5136,4.5123,4.5215,4.5133,4.5137,4.5128,4.5124,4.5132,4.5232,4.5235,4.5237,4.5238,0,4.4617,4.4613,4.4671,4.4729,4.4777,4.4823,4.4865,4.49,4.4893,4.4943,4.5016,4.5059,4.5143,4.5213,4.5274,4.5296,4.5268,4.5264,4.5287,4.5295,4.5294,4.5298,4.5019,4.5258,4.5256,4.5255,4.5254,4.5253,4.4769,4.4829,4.4865,4.4931,4.4961,4.5001,4.5059,4.5072,4.5132,4.5199,4.5188,4.5271,4.531,4.539,4.5417,4.5482,4.545,4.5483,4.5492,4.55,4.5511,4.5282,4.5493,4.5493,4.5492,4.5492,4.5491,0,4.4978,4.4999,4.506,4.512,4.5173,4.5139,4.5185,4.5231,4.5304,4.5342,4.5397,4.5482,4.555,4.557,4.5637,4.5685,4.5674,4.5704,4.5701,4.5707,4.5534,4.5509,4.5712,4.5712,4.5711,4.5711,4.5711,4.5711,4.5093,4.5193,4.5195,4.531,4.5331,4.5411,4.544,4.5478,4.5508,4.5605,4.5661,4.5673,4.5705,4.5774,4.5836,4.584,4.5867,4.5902,4.5902,4.5741,4.5719,4.5698,4.5674,4.5908,4.5908,4.6069,4.607,4.6071]},{"header":{"parameterUnit":"m.s-1","parameterCategory":1,"la1":30.2991,"la2":30.254,"lo1":-89.0895,"lo2":-89.0444,"dy":0.0017,"dx":0.0017,"nx":28,"ny":28,"refTime":"2025-03-06T09:00:00:Z","depth":0,"parameterNumber":3,"parameterNumberName":"V-component_of_WINDS"},"data":[0,0,0,0,0,0,0,0,0,0,0,0,0,0,0,0,0,0,0,0,0,0,0,0,0,0,0,0,0,0,0,0,0,0,0,0,0,0,0,0,0,0,0,0,0,0,0,0,0,0,0,0,0,0,0,0,0,0,-5.1692,-5.1694,0,-5.1861,-5.1863,-5.1865,-5.1877,-5.1875,-5.1873,-5.1871,-5.2046,-5.2052,-5.2058,0,0,0,0,0,0,0,0,0,0,0,0,0,-5.1381,-5.1386,-5.1692,-5.1694,-5.1696,-5.1861,-5.1863,-5.1866,-5.1877,-5.1875,-5.1872,-5.187,-5.2044,-5.2051,-5.2059,0,0,0,0,0,0,0,0,0,0,0,0,0,-5.1529,-5.1388,-5.1691,-5.1722,-5.1726,-5.186,-5.1863,-5.1866,-5.1877,-5.1875,-5.1872,-5.1869,-5.2041,-5.205,-5.206,-5.2176,0,0,-5.2089,-5.2093,0,0,0,0,0,0,0,0,-5.1521,-5.1541,-5.1715,-5.172,-5.1725,-5.1845,-5.1818,-5.197,-5.1878,-5.182,-5.1871,-5.1868,-5.1981,-5.1996,-5.2034,-5.2184,-5.2192,-5.209,-5.2096,-5.21,-5.2103,0,0,0,0,0,0,0,-5.1511,-5.1534,-5.1759,-5.1718,-5.1724,-5.1727,-5.1745,-5.1847,-5.1915,-5.1825,-5.1826,-5.1846,-5.1983,-5.2024,-5.2038,-5.2195,-5.209,-5.2098,-5.2104,-5.2108,-5.2451,-5.2454,0,0,0,0,0,0,-5.1494,-5.1525,-5.1754,-5.1764,-5.1614,-5.1735,-5.1755,-5.1809,-5.1913,-5.1927,-5.1848,-5.1846,-5.2009,-5.2027,-5.2044,-5.2188,-5.21,-5.2109,-5.2115,-5.2448,-5.2452,-5.2455,0,0,0,0,0,0,-5.1488,-5.1515,-5.1747,-5.1645,-5.1675,-5.1744,-5.1804,-5.1814,-5.1855,-5.1931,-5.1943,-5.1877,-5.2008,-5.203,-5.2144,-5.2194,-5.2113,-5.2122,-5.2444,-5.2449,-5.2454,-5.2477,0,0,0,0,0,0,-5.1479,-5.1512,-5.1556,-5.1646,-5.168,-5.1843,-5.1807,-5.1819,-5.1871,-5.187,-5.1962,-5.1974,-5.2007,-5.2129,-5.2153,-5.2206,-5.213,-5.244,-5.2446,-5.2452,-5.2472,-5.2482,-5.2491,0,0,0,0,0,-5.1467,-5.1556,-5.1559,-5.1586,-5.1737,-5.1846,-5.1865,-5.1901,-5.1875,-5.1921,-5.197,-5.1971,-5.2185,-5.2141,-5.2168,-5.2225,-5.2437,-5.2444,-5.2452,-5.2468,-5.248,-5.2491,0,0,0,0,0,0,-5.1471,-5.1568,-5.1572,-5.1692,-5.1761,-5.1847,-5.1906,-5.1913,-5.199,-5.1986,-5.2027,-5.2048,-5.216,-5.2204,-5.2153,-5.2343,-5.2308,-5.2321,-5.2311,-5.2323,-5.2333,-5.232,-5.2138,0,0,0,0,0,-5.1486,-5.1566,-5.1646,-5.1745,-5.1779,-5.1837,-5.1885,-5.1907,-5.198,-5.2009,-5.2066,-5.2137,-5.222,-5.2274,-5.2355,-5.2478,-5.2499,-5.2531,-5.254,-5.2547,-5.2559,-5.2629,-5.2644,-5.248,-5.248,-5.248,0,0,-5.1517,-5.158,-5.1628,-5.1747,-5.1803,-5.1885,-5.1861,-5.1949,-5.2011,-5.2022,-5.2133,-5.2177,-5.2259,-5.2378,-5.2434,-5.2418,-5.2609,-5.2557,-5.2562,-5.257,-5.2638,-5.2653,-5.2667,-5.2485,-5.2484,-5.2483,0,0,-5.1617,-5.1672,-5.1761,-5.1817,-5.1901,-5.1939,-5.196,-5.2047,-5.2077,-5.2188,-5.2199,-5.2274,-5.2416,-5.2474,-5.2522,-5.2645,-5.265,-5.267,-5.272,-5.2788,-5.28,-5.2812,-5.2857,-5.2873,-5.2681,-5.2681,-5.2681,0,-5.1646,-5.177,-5.1805,-5.1894,-5.1946,-5.196,-5.2051,-5.2104,-5.2211,-5.2247,-5.2228,-5.2407,-5.2464,-5.2597,-5.2627,-5.2665,-5.2692,-5.266,-5.2796,-5.2808,-5.2819,-5.2862,-5.2879,-5.2683,-5.2683,-5.2683,-5.2683,0,-5.1801,-5.1887,-5.1949,-5.2051,-5.2111,-5.22,-5.225,-5.2306,-5.2323,-5.2363,-5.2477,-5.2545,-5.264,-5.2673,-5.2691,-5.281,-5.2798,-5.2787,-5.2752,-5.2836,-5.2878,-5.2894,-5.2686,-5.2685,-5.2685,-5.2684,0,0,-5.1908,-5.2029,-5.2052,-5.2099,-5.2193,-5.2261,-5.2351,-5.2444,-5.2492,-5.2565,-5.2642,-5.2763,-5.2753,-5.2808,-5.2832,-5.2891,-5.2986,-5.2873,-5.2876,-5.2893,-5.3123,-5.3132,-5.315,-5.2989,-5.2993,-5.2995,-5.3117,0,-5.2019,-5.2179,-5.2214,-5.2352,-5.2433,-5.2448,-5.2527,-5.2594,-5.2634,-5.2709,-5.2754,-5.2839,-5.2819,-5.2853,-5.2912,-5.2962,-5.3033,-5.2953,-5.3063,-5.3066,-5.3042,-5.3172,-5.3181,-5.3292,-5.3133,-5.3136,-5.3138,0,-5.2169,-5.2246,-5.2392,-5.2477,-5.2512,-5.2582,-5.2671,-5.2742,-5.2819,-5.2844,-5.2906,-5.2924,-5.3019,-5.298,-5.3112,-5.3057,-5.3104,-5.3136,-5.3141,-5.3153,-5.3107,-5.3188,-5.3328,-5.3345,-5.3164,-5.3161,-5.316,0,-5.2233,-5.2373,-5.2479,-5.2519,-5.262,-5.267,-5.2714,-5.2788,-5.2842,-5.292,-5.2956,-5.3044,-5.3092,-5.316,-5.3202,-5.3169,-5.3332,-5.3295,-5.3356,-5.3356,-5.339,-5.3388,-5.3541,-5.3419,-5.3419,-5.3419,-5.3418,0,-5.2354,-5.2443,-5.251,-5.2575,-5.2676,-5.2716,-5.2815,-5.2859,-5.2925,-5.3,-5.3019,-5.3089,-5.3139,-5.3217,-5.325,-5.3356,-5.3377,-5.3401,-5.3409,-5.34,-5.3397,-5.3432,-5.3425,-5.3423,-5.3422,-5.3421,-5.3421,0,-5.2443,-5.2491,-5.2607,-5.2694,-5.2718,-5.2788,-5.2863,-5.2928,-5.2968,-5.3063,-5.3088,-5.3152,-5.3244,-5.3293,-5.3408,-5.343,-5.3549,-5.3553,-5.3523,-5.3527,-5.3586,-5.358,-5.3767,-5.3794,-5.3654,-5.3655,-5.3656,0,-5.2517,-5.2586,-5.268,-5.2731,-5.2777,-5.2859,-5.2914,-5.2957,-5.3014,-5.3107,-5.3161,-5.3254,-5.3331,-5.3478,-5.3536,-5.3624,-5.363,-5.369,-5.3644,-5.3633,-5.3633,-5.3628,-5.3636,-5.3698,-5.3699,-5.37,-5.3701,0,-5.2643,-5.2664,-5.2742,-5.283,-5.2896,-5.2967,-5.3037,-5.3078,-5.3133,-5.3196,-5.329,-5.335,-5.3468,-5.3561,-5.3654,-5.3701,-5.3711,-5.3715,-5.3734,-5.3726,-5.3707,-5.3719,-5.3546,-5.3711,-5.371,-5.3709,-5.3709,-5.3708,-5.2728,-5.279,-5.2867,-5.2954,-5.3011,-5.3077,-5.3142,-5.3191,-5.327,-5.3369,-5.339,-5.349,-5.3567,-5.3693,-5.3743,-5.3823,-5.381,-5.3838,-5.3845,-5.3851,-5.3854,-5.3693,-5.384,-5.3839,-5.3839,-5.3839,-5.3839,0,-5.2856,-5.2906,-5.2986,-5.3084,-5.3153,-5.3156,-5.3234,-5.3292,-5.338,-5.345,-5.3525,-5.3635,-5.3725,-5.379,-5.3882,-5.3934,-5.3941,-5.3957,-5.3954,-5.3965,-5.3859,-5.3834,-5.395,-5.3949,-5.3949,-5.3949,-5.3949,-5.3949,-5.2931,-5.3037,-5.3067,-5.3202,-5.3252,-5.335,-5.3395,-5.3456,-5.3512,-5.3633,-5.3708,-5.3749,-5.3818,-5.3916,-5.3999,-5.4016,-5.405,-5.4066,-5.4083,-5.3984,-5.3972,-5.3961,-5.3937,-5.4072,-5.4073,-5.4182,-5.4183,-5.4184]}]]